sat.trackr.live / text

‹ back to catalog

ZHONGXING-6E

NORAD 58253 · 2023-172A

PAYLOAD ACTIVE UNKNOWN

§ Identity

Operator
Country
PRC
Launch date
2023-11-09
Launch site
XICLF
Launch vehicle
Mass (kg)
RCS (m²)

Purposes: comms

External: N2YO · Heavens-Above · Gunter

§ Orbital elements

Epoch: 2026-09-19T20:05:42.093600Z

Period
1,436.04 min
Inclination
0.0430°
Eccentricity
0.0002434
Mean motion
1.00275907 rev/d
Perigee alt
35,775.2 km
Apogee alt
35,795.7 km
Semi-major
42,163.6 km
B*
0.0000e+0
RAAN
252.8212°
Arg perigee
279.8925°
Mean anomaly
242.9522°
Rev number
1,060

§ Raw data

ZHONGXING-6E1 58253U 23172A   26262.83729275 -.00000366  00000+0  00000+0 0  99932 58253   0.0430 252.8212 0002434 279.8925 242.9522  1.00275907 10603

JSON: /api/v1/satellites/58253 · /tle

For live sub-satellite position, see the globe view (requires WebGL).

§ Visibility from observer

Set your observer location to see the next 7 days of passes ≥ 10°. The values pass through the URL so the page stays shareable.

No JS? Fill the form by hand. The geolocation button needs JavaScript.